Home > Weather > Santorini > Past weeks

Flag for Greece Past Weather in Santorini, Greece — Yesterday and Last 2 Weeks

Now
75 °F

Passing clouds.


Feels Like: 75 °F
Forecast: 75 / 79 °F
Wind: 6 mph from Northwest

Location: Santorini Island

Current Time: Jun 27, 2016 at 12:03:06 AM

Latest Report: Jun 26, 2016 at 11:20 PM


Visibility: N/A

Pressure: 29.86 "Hg

Humidity: 89%

Dew Point: 72 °F

Location of SantoriniLocation

Past Weather in Santorini — Graph

°F

Santorini Temperature Yesterday

Maximum temperature yesterday: 81 °F (at 12:20 PM)
Minimum temperature yesterday: 73 °F (at 3:20 AM)
Average temperature yesterday: 77 °F

High & Low Weather Summary for the Past Weeks

 TemperatureHumidityPressure
High93 °F (Jun 19, 10:50 AM)89% (Jun 26, 9:20 PM)30.01 "Hg (Jun 26, 9:20 PM)
Low64 °F (Jun 12, 1:50 AM)26% (Jun 19, 11:50 AM)29.56 "Hg (Jun 14, 3:50 AM)
Average80 °F59%29.83 "Hg
* Reported Jun 11 10:20 PM — Jun 26 10:50 PM, Santorini, Weather by CustomWeather, © 2016

Note: Actual official high and low records may vary slightly from our data, if they occured in-between our weather recording intervals... More about our weather records

Advertising

Santorini Weather History for the Previous 24 Hours

Scroll right to see more
 ConditionsComfort  
Time TempWeatherWind HumidityBarometerVisibility
10:50 PM
Sun, Jun 26
75 °FPassing clouds.6 mph89%29.86 "HgN/A
10:20 PM75 °FPassing clouds.6 mph89%29.83 "HgN/A
9:50 PM75 °FPassing clouds.6 mph83%29.83 "HgN/A
9:20 PM75 °FScattered clouds.8 mph89%29.80 "HgN/A
8:50 PM75 °FScattered clouds.6 mph83%29.80 "HgN/A
8:20 PM77 °FScattered clouds.9 mph79%29.80 "HgN/A
7:50 PM77 °FBroken clouds.12 mph79%29.80 "HgN/A
7:20 PM77 °FPartly sunny.10 mph74%29.80 "HgN/A
6:50 PM79 °FScattered clouds.9 mph70%29.80 "HgN/A
6:20 PM79 °FScattered clouds.12 mph70%29.80 "HgN/A
5:50 PM81 °FScattered clouds.12 mph66%29.80 "HgN/A
5:20 PM81 °FScattered clouds.13 mph66%29.80 "HgN/A
4:50 PM81 °FPassing clouds.13 mph62%29.83 "HgN/A
4:20 PM81 °FPassing clouds.14 mph66%29.80 "HgN/A
3:50 PM79 °FScattered clouds.16 mph70%29.83 "HgN/A
3:20 PM81 °FScattered clouds.17 mph62%29.83 "HgN/A
2:50 PM81 °FScattered clouds.13 mph62%29.83 "HgN/A
2:20 PM81 °FScattered clouds.15 mph62%29.83 "HgN/A
1:50 PM79 °FScattered clouds.14 mph65%29.83 "HgN/A
1:20 PM79 °FScattered clouds.15 mph65%29.83 "HgN/A
12:50 PM81 °FScattered clouds.16 mph62%29.83 "HgN/A
12:20 PM81 °FScattered clouds.15 mph62%29.83 "HgN/A
11:50 AM79 °FScattered clouds.16 mph65%29.83 "HgN/A
11:20 AM79 °FScattered clouds.14 mph65%29.83 "HgN/A
10:50 AM79 °FScattered clouds.16 mph65%29.83 "HgN/A
10:20 AM79 °FScattered clouds.15 mph65%29.80 "HgN/A
9:50 AM79 °FBroken clouds.13 mph65%29.80 "HgN/A
9:20 AM79 °FScattered clouds.14 mph65%29.80 "HgN/A
8:50 AM77 °FScattered clouds.16 mph69%29.80 "HgN/A
8:20 AM77 °FBroken clouds.15 mph69%29.80 "HgN/A
7:50 AM77 °FBroken clouds.18 mph69%29.77 "HgN/A
7:20 AM75 °FBroken clouds.18 mph74%29.77 "HgN/A
6:50 AM75 °FPartly cloudy.17 mph78%29.77 "HgN/A
6:20 AM73 °FPassing clouds.14 mph78%29.77 "HgN/A
5:50 AM73 °FPassing clouds.13 mph78%29.74 "HgN/A
5:20 AM73 °FClear.14 mph83%29.74 "Hg10 mi
4:50 AM73 °FPassing clouds.13 mph83%29.74 "HgN/A
4:20 AM73 °FMild.13 mph83%29.77 "HgN/A
3:50 AM73 °FMild.13 mph83%29.74 "HgN/A
3:20 AM73 °FLight rain. Overcast.13 mph83%29.74 "HgN/A
2:50 AM75 °FMild.13 mph74%29.74 "HgN/A
2:20 AM75 °FPassing clouds.15 mph78%29.77 "HgN/A
1:50 AM75 °FPassing clouds.15 mph78%29.77 "HgN/A
12:50 AM75 °FPassing clouds.21 mph78%29.74 "HgN/A
12:20 AM75 °FPassing clouds.23 mph83%29.74 "HgN/A
Weather by CustomWeather, © 2016

See weather overviewHow to use our weather pages